West Coast Haida Gwaii - southern half: Past 24 Hour Conditions
North Nomad - 46184
05:00 PM PDT 14 April 2026Buoy position: 53.9N 138.85W| Date / Time (PDT) |
Wind(knots) | Wave height(m) | Wave period(s) | Pressure(kPa) | Air temp(°C) | Water temp(°C) |
|---|---|---|---|---|---|---|
| 14 April 2026 | ||||||
| 17:00 | NNW 18 gusts 21 | 2.46 | 8.7 | 101.1 | 6 | 6 |
| 16:00 | N 18 gusts 22 | 2.63 | 9.5 | 101.0 | 6 | 6 |
| 15:00 | NNW 17 gusts 22 | 2.57 | 10.0 | 100.9 | 5 | 6 |
| 14:00 | NNW 19 gusts 23 | 2.96 | 10.0 | 100.7 | 5 | 6 |
| 13:00 | NW 20 gusts 26 | 3.26 | 10.0 | 100.7 | 5 | 6 |
| 12:00 | NW 22 gusts 31 | 3.01 | 10.0 | 100.6 | 4 | 6 |
| 11:00 | NW 20 gusts 25 | 3.12 | 10.0 | 100.5 | 5 | 6 |
| 10:00 | NW 23 gusts 30 | 3.01 | 10.0 | 100.5 | 5 | 6 |
| 9:00 | NW 22 gusts 29 | 3.18 | 10.0 | 100.4 | 5 | 6 |
| 8:00 | WNW 22 gusts 27 | 2.66 | 9.1 | 100.4 | 5 | 6 |
| 7:00 | NW 18 gusts 24 | 2.95 | 10.0 | 100.4 | 4 | 6 |
| 6:00 | WNW 21 gusts 26 | 2.78 | 10.0 | 100.4 | 5 | 6 |
| 5:00 | WNW 21 gusts 26 | 2.66 | 11.1 | 100.3 | 5 | 6 |
| 4:00 | W 18 gusts 22 | 2.60 | 10.5 | 100.4 | 4 | 6 |
| 3:00 | W 20 gusts 28 | 2.53 | 9.5 | 100.4 | 4 | 6 |
| 2:00 | WNW 19 gusts 24 | 2.88 | 10.5 | 100.4 | 4 | 6 |
| 1:00 | W 15 gusts 19 | 2.81 | 11.1 | 100.4 | 3 | 6 |
| 0:00 | WNW 19 gusts 26 | 3.19 | 11.1 | 100.4 | 3 | 6 |
| 13 April 2026 | ||||||
| 23:00 | WNW 20 gusts 26 | 3.48 | 10.0 | 100.4 | 3 | 6 |
| 22:00 | WNW 20 gusts 25 | 3.26 | 11.1 | 100.4 | 4 | 6 |
| 21:00 | W 19 gusts 24 | 3.13 | 10.5 | 100.4 | 4 | 6 |
| 20:00 | WNW 18 gusts 25 | 3.10 | 10.5 | 100.4 | 4 | 6 |
| 19:00 | WNW 19 gusts 24 | 3.10 | 10.5 | 100.5 | 4 | 6 |
| 18:00 | WNW 21 gusts 26 | 3.32 | 10.0 | 100.5 | 4 | 6 |
| 17:00 | W 24 gusts 34 | 3.14 | 10.5 | 100.5 | 2 | 6 |
If you require additional historical weather information please visit Fisheries and Oceans Canada
Zoom-in to make a selection
Legend:
Pacific - North Coast Area
Another Region
Features
Colour-coded weather alerts
Learn more about weather alerting in Canada
- Date modified: